Regional Weather Roundup
Issued by NWS Charleston, SC

Current Version | Previous Version | Text Only | Print | Product List | Glossary On
Versions: 1 2 3 4 5 6 7 8 9 10 11 12 13 14 15 16 17 18 19 20 21 22 23 24 25 26 27 28 29 30 31 32 33 34 35 36 37 38 39 40 41 42 43 44 45 46 47 48 49 50
000 ASUS42 KCHS 220110 RWRCHS REGIONAL WEATHER ROUNDUP NATIONAL WEATHER SERVICE CHARLESTON SC 900 PM EDT THU AUG 21 2014 NOTE: "FAIR" INDICATES FEW OR NO CLOUDS BELOW 12,000 FEET WITH NO SIGNIFICANT WEATHER AND/OR OBSTRUCTIONS TO VISIBILITY. NOT ALL STATIONS ARE QUALITY CONTROLLED BY THE NATIONAL WEATHER SERVICE. USE DATA WITH CAUTION...ESPECIALLY DEWPOINT OBSERVATIONS. SCZ027-030-031-034>040-042>050-220200- ...SOUTH CAROLINA... CITY SKY/WX TMP DP RH WIND PRES REMARKS N CHARLESTON CLEAR 88 72 58 CALM 30.04R HX 94 WATERFRONT PRK N/A 86 N/A N/A CALM N/A FORT JOHNSON NOT AVBL MOUNT PLEASANT FAIR 82 81 94 CALM 30.04S HX 95 JOHNS ISLAND CLEAR 86 82 89 CALM 30.05R HX 105 PINOPOLIS N/A 90 77 66 CALM 29.96S HX 102 MONCKS CORNER N/A 82 81 94 CALM 30.04S HX 95 SUMMERVILLE NOT AVBL BEAUFORT MCAS PTCLDY 85 76 74 CALM 30.04R HX 94 BEAUFORT ARPT FAIR 82 79 89 S3 30.04R HX 93 HILTON HEAD IS CLEAR 84 81 89 S5 30.06R HX 98 GEORGETOWN NOT AVBL WALTERBORO CLEAR 82 72 69 CALM 30.05S ORANGEBURG CLEAR 82 71 69 CALM 30.05S BARNWELL FAIR 84 68 58 CALM 30.06R AIKEN FAIR 86 70 58 CALM 30.10R HX 90 MANNING FAIR 81 81 100 CALM 30.05R HX 91 KINGSTREE NOT AVBL COLUMBIA PTCLDY 87 70 56 CALM 30.05R HX 92 SUMTER PTCLDY 84 72 66 CALM 30.04S FLORENCE PTCLDY 82 72 71 CALM 30.04S MYRTLE BEACH CLEAR 82 73 74 SW6 30.04R N MYRTLE BEACH PTCLDY 79 76 90 CALM 30.03S $$ GAZ063-065-086>088-099>101-113>116-118-119-134-136>141-150-220200- ...GEORGIA... CITY SKY/WX TMP DP RH WIND PRES REMARKS SAVANNAH ARPT PTCLDY 85 73 67 CALM 30.05R HX 91 HUNTER AAF CLEAR 85 74 71 E1 30.02S HX 92 FORT STEWART CLEAR 83 72 69 CALM 30.04R STATESBORO NOT AVBL SYLVANIA CLEAR 80 77 89 CALM 30.06S CLAXTON FAIR 81 79 94 CALM 30.05S THOMSON PTCLDY 79 76 90 CALM 30.11S AUGUSTA-BUSH CLEAR 82 69 64 CALM 30.03S AUGUSTA-DANIEL CLEAR 91 65 41 VRB3 30.06S HX 93 SWAINSBORO FAIR 82 73 74 CALM 30.07R VIDALIA N/A 82 75 78 CALM 30.06S ALMA CLEAR 83 75 77 CALM 30.07R HX 90 WAYCROSS CLEAR 87 79 77 CALM 30.06R HX 100 JESUP N/A 82 77 83 CALM 30.06R HX 91 BRUNSWICK CLEAR 81 73 78 CALM 30.06R SAINT SIMONS CLEAR 85 79 82 S9 30.06R HX 98 $$ SCZ027-028-034-036>038-045-046-048>050-GAZ119-141-220200- ...LAKE AND SUPPLEMENTAL COASTAL OBSERVATIONS... STATION/POSITION TIME TEMP WIND PRES WAVE SWELL AIR SEA DIR/SP/G HT/PER HT/PER/DIR (UTC) (F) (DEG/KT/KT) (MB) (FT/S) (FT/S/D) UPR LAKE MARION NOT AVBL WINYAH BAY 0000 85 190/ 4 1017.0R LAKE MURRAY 0000 87 CALM / 1 1016.6F ACE BASIN NERRS 0000 87 CALM 1017.0S FORT PULASKI 0100 85 150/ 3/ 6 1017.7R SAPELO ISLAND 0000 88 150/ 5 1018.0S $$ ANZ835-935-AMZ111-154-330-350-352-354-374-450-454-472-220200- ...C-MAN AND BUOY OBSERVATIONS... STATION/POSITION TIME TEMP WIND PRES WAVE SWELL AIR SEA DIR/SP/G HT/PER HT/PER/DIR (UTC) (F) (DEG/KT/KT) (MB) (FT/S) (FT/S/D) FOLLY BEACH CMAN 0000 85 210/ 7/ 8 1017.4R BUOY 41004 0100 84 85 200/ 6/ 6 1016.9R 2/ 9 2/ 9 BUOY 41008 0100 85 85 180/ 10/ 10 1017.5R 1/ 9 5E ST. MARYS GA 0100 84 N/A 1/ 9 FRYING PAN BUOY NOT AVBL BUOY 41025 0100 81 200/ 8/ 10 1016.2F 2/ 9 2/ 70/ 9 CAPE LOOKOUT NC 0000 81 200/ 5/ 6 1016.2S BUOY 41002 0039 82 82 240/ 10/ 10 1018.8R 2/ 5 2/240/ 5 BUOY 41010 0100 85 86 180/ 4/ 4 1019.3R 1/ 7 2/120/ 7 BUOY 41012 NOT AVBL ST AUGUSTINE FL 0100 81 220/ 5/ 6 1019.8R CAPERS NEARSHORE 0000 85 210/ 6/ 8 N/A FRIPP NEARSHORE NOT AVBL $$

USA.gov is the U.S. government's official web portal to all federal, state and local government web resources and services.